Camarillo, CA

2:04 PM PST on February 24, 2018 (GMT -0800)
Camarillo

Weather History for KCMA - July, 2014

Change the Weather History Date:

Thursday, July 24, 2014

  Actual Average Record
Temperature  
Mean Temperature 75 °F 67 °F  
Max Temperature 87 °F 77 °F 87 °F (2014)
Min Temperature 62 °F 58 °F 45 °F (1930)
Degree Days  
Heating Degree Days 0 0  
Month to date heating degree days 0 1  
Since 1 June heating degree days 12 44  
Since 1 July heating degree days 0 1  
Cooling Degree Days 10 3  
Month to date cooling degree days 161 55  
Year to date cooling degree days 354 109  
Since 1 June cooling degree days 206 78  
Growing Degree Days 24 (Base 50)    
Moisture  
Dew Point 60 °F    
Average Humidity 64    
Maximum Humidity 87    
Minimum Humidity 40    
Precipitation  
Precipitation 0.00 in 0.00 in 0.00 in (2018)
Month to date precipitation T 0.02  
Year to date precipitation 4.19 11.00  
Since 1 July precipitation T  
Sea Level Pressure  
Sea Level Pressure 29.84 in    
Wind  
Wind Speed 4 mph (WSW)    
Max Wind Speed 12 mph    
Max Gust Speed 17 mph    
Visibility 10 miles    
Events      
T = Trace of Precipitation, MM = Missing Value Source: NWS Daily Summary

Daily Weather History Graph

Daily Weather History Graph

Search for Another Location

Airport or City:

Trip Planner

Search our weather history database for the weather conditions in past years. The results will help you decide how hot, cold, wet, or windy it might be!

Date:

Astronomy

Jul. 24, 2014 Rise Set
Actual Time 6:01 AM PDT 8:03 PM PDT
Civil Twilight 5:33 AM PDT 8:31 PM PDT
Nautical Twilight 4:59 AM PDT 9:05 PM PDT
Astronomical Twilight 4:23 AM PDT 9:42 PM PDT
Moon 4:12 AM PDT 6:23 PM PDT
Length of Visible Light 14h 57m
Length of Day
14h 01m
Waning Crescent, 4% of the Moon is Illuminated
Jul 24
Waning Crescent
Jul 26
New
Aug 3
First Quarter
Aug 10
Full
Aug 17
Last Quarter

Hourly Weather History & Observations

Time (PDT) Temp. Heat Index Dew Point Humidity Pressure Visibility Wind Dir Wind Speed Gust Speed Precip Events Conditions
12:55 AM 66.9 °F - 60.1 °F 79% 29.91 in 10.0 mi Calm Calm - N/A   Clear
1:55 AM 66.0 °F - 60.1 °F 81% 29.90 in 10.0 mi Calm Calm - N/A   Clear
2:55 AM 64.9 °F - 60.1 °F 84% 29.88 in 9.0 mi Calm Calm - N/A   Clear
3:55 AM 64.9 °F - 60.1 °F 84% 29.87 in 9.0 mi Calm Calm - N/A   Clear
4:55 AM 64.0 °F - 57.0 °F 78% 29.87 in 10.0 mi Calm Calm - N/A   Clear
5:55 AM 63.0 °F - 57.0 °F 81% 29.88 in 10.0 mi Calm Calm - N/A   Clear
6:55 AM 66.0 °F - 57.9 °F 75% 29.89 in 10.0 mi Calm Calm - N/A   Clear
7:55 AM 71.1 °F - 57.0 °F 61% 29.90 in 10.0 mi Calm Calm - N/A   Clear
8:55 AM 75.0 °F - 59.0 °F 57% 29.89 in 10.0 mi Calm Calm - N/A   Clear
9:55 AM 80.1 °F 81.1 °F 61.0 °F 52% 29.88 in 10.0 mi Variable 4.6 mph - N/A   Clear
10:55 AM 82.9 °F 83.7 °F 62.1 °F 49% 29.87 in 10.0 mi WSW 6.9 mph - N/A   Clear
11:55 AM 84.0 °F 84.0 °F 60.1 °F 44% 29.85 in 10.0 mi West 9.2 mph - N/A   Clear
12:55 PM 84.9 °F 84.8 °F 60.1 °F 43% 29.85 in 10.0 mi SW 10.4 mph - N/A   Clear
1:55 PM 86.0 °F 85.4 °F 59.0 °F 40% 29.83 in 10.0 mi Variable 6.9 mph - N/A   Clear
2:55 PM 86.0 °F 86.1 °F 61.0 °F 43% 29.82 in 10.0 mi West 9.2 mph - N/A   Clear
3:55 PM 84.0 °F 84.0 °F 60.1 °F 44% 29.80 in 10.0 mi WSW 8.1 mph - N/A   Clear
4:55 PM 82.0 °F 82.7 °F 61.0 °F 49% 29.78 in 10.0 mi Variable 6.9 mph - N/A   Clear
5:55 PM 79.0 °F - 61.0 °F 54% 29.77 in 10.0 mi WSW 5.8 mph - N/A   Clear
6:55 PM 75.0 °F - 61.0 °F 62% 29.78 in 9.0 mi West 6.9 mph - N/A   Clear
7:55 PM 72.0 °F - 60.1 °F 66% 29.78 in 8.0 mi WSW 5.8 mph - N/A   Clear
8:55 PM 70.0 °F - 60.1 °F 71% 29.80 in 8.0 mi WSW 3.5 mph - N/A   Clear
9:55 PM 68.0 °F - 60.1 °F 76% 29.82 in 8.0 mi West 3.5 mph - N/A   Clear
10:55 PM 68.0 °F - 60.1 °F 76% 29.82 in 8.0 mi Calm Calm - N/A   Clear
11:55 PM 66.9 °F - 59.0 °F 76% 29.83 in 8.0 mi Calm Calm - N/A   Clear